Weather History for KC29 - October, 2013

Change the Weather History Date:

Wednesday, October 30, 2013

  Actual Average (KMSN) Record (KMSN)
Temperature  
Mean Temperature 50 °F 44 °F  
Max Temperature 57 °F 53 °F 78 °F (1971)
Min Temperature 45 °F 35 °F 13 °F (1988)
Degree Days  
Heating Degree Days 15 21  
Month to date heating degree days 484  
Since 1 July heating degree days 692  
Cooling Degree Days 0 0  
Month to date cooling degree days 0  
Year to date cooling degree days 564  
Moisture  
Dew Point 49 °F    
Average Humidity 93    
Maximum Humidity 97    
Minimum Humidity 79    
Precipitation  
Precipitation 0.00 in 0.08 in 1.43 in (1919)
Month to date precipitation 2.32  
Year to date precipitation 30.27  
Snow  
Snow 0.00 in 0.10 in 0.80 in (1923)
Month to date snowfall 0.5  
Since 1 July snowfall 0.5  
Since 1 September snowfall 0.5  
Snow Depth -    
Sea Level Pressure  
Sea Level Pressure 29.97 in    
Wind  
Wind Speed 4 mph (SE)    
Max Wind Speed 17 mph    
Max Gust Speed 21 mph    
Visibility 2 miles    
Events      
T = Trace of Precipitation, MM = Missing Value Source: NWS Daily Summary

Daily Weather History Graph

Daily Weather History Graph

Search for Another Location

Airport or City:

Trip Planner

Search our weather history database for the weather conditions in past years. The results will help you decide how hot, cold, wet, or windy it might be!

Date:

Astronomy

Oct. 30, 2013 Rise Set
Actual Time 7:30 AM CDT 5:52 PM CDT
Civil Twilight 7:01 AM CDT 6:21 PM CDT
Nautical Twilight 6:27 AM CDT 6:55 PM CDT
Astronomical Twilight 5:54 AM CDT 7:28 PM CDT
Moon 3:13 AM CDT (10/30) 3:43 PM CDT (10/30)
Length of Visible Light 11h 20m
Length of Day
10h 21m
Waning Crescent, 17% of the Moon is Illuminated
Oct 30
Waning Crescent
Nov 3
New
Nov 9
First Quarter
Nov 17
Full
Nov 25
Last Quarter

Hourly Weather History & Observations

Time (CDT) Temp. Dew Point Humidity Pressure Visibility Wind Dir Wind Speed Gust Speed Precip Events Conditions
12:15 AM 46.6 °F 40.8 °F 80% 30.12 in 7.0 mi Calm Calm - N/A   Mostly Cloudy
12:35 AM 47.3 °F 41.0 °F 79% 30.12 in 10.0 mi SE 3.5 mph - N/A   Overcast
12:55 AM 47.3 °F 41.0 °F 79% 30.12 in 10.0 mi SSE 3.5 mph - N/A   Overcast
1:15 AM 47.3 °F 41.0 °F 79% 30.11 in 7.0 mi SSE 4.6 mph - N/A   Overcast
1:35 AM 47.3 °F 41.0 °F 79% 30.11 in 7.0 mi Calm Calm - N/A   Overcast
1:55 AM 47.3 °F 41.0 °F 79% 30.11 in 7.0 mi SE 3.5 mph - N/A   Overcast
2:15 AM 46.8 °F 40.6 °F 79% 30.10 in 7.0 mi SE 3.5 mph - N/A   Overcast
2:35 AM 46.9 °F 41.0 °F 80% 30.09 in 7.0 mi SE 4.6 mph - N/A   Overcast
2:55 AM 46.2 °F 40.3 °F 80% 30.09 in 7.0 mi Calm Calm - N/A   Mostly Cloudy
3:15 AM 45.5 °F 40.1 °F 81% 30.09 in 7.0 mi Calm Calm - N/A   Mostly Cloudy
3:35 AM 45.5 °F 40.8 °F 84% 30.09 in 7.0 mi Calm Calm - N/A   Overcast
3:55 AM 47.3 °F 41.7 °F 81% 30.09 in 7.0 mi Calm Calm - N/A   Overcast
4:15 AM 46.8 °F 42.3 °F 84% 30.09 in 7.0 mi Calm Calm - N/A   Overcast
4:35 AM 48.0 °F 44.6 °F 88% 30.09 in 4.0 mi South 4.6 mph - N/A   Overcast
4:55 AM 47.7 °F 45.5 °F 92% 30.09 in 3.0 mi South 3.5 mph - N/A   Overcast
5:15 AM 47.7 °F 45.7 °F 93% 30.08 in 1.5 mi ESE 3.5 mph - N/A   Overcast
5:35 AM 47.7 °F 46.2 °F 95% 30.09 in 1.5 mi ESE 4.6 mph - N/A   Overcast
5:55 AM 47.5 °F 46.0 °F 95% 30.08 in 0.8 mi SE 3.5 mph - N/A   Overcast
6:15 AM 47.5 °F 46.0 °F 95% 30.09 in 0.5 mi ESE 3.5 mph - N/A   Overcast
6:35 AM 47.5 °F 46.2 °F 95% 30.08 in 0.2 mi ESE 4.6 mph - N/A   Overcast
6:55 AM 47.5 °F 46.4 °F 96% 30.07 in 0.2 mi East 4.6 mph - N/A   Overcast
7:15 AM 47.8 °F 46.8 °F 96% 30.07 in 0.8 mi SE 5.8 mph - N/A   Overcast
7:35 AM 47.8 °F 46.8 °F 96% 30.07 in 1.0 mi SE 5.8 mph - N/A   Overcast
7:55 AM 47.8 °F 46.8 °F 96% 30.06 in 0.8 mi SE 5.8 mph - N/A   Overcast
8:15 AM 48.2 °F 47.3 °F 97% 30.07 in 0.8 mi ESE 4.6 mph - N/A   Overcast
8:35 AM 48.6 °F 47.5 °F 96% 30.07 in 0.8 mi SE 3.5 mph - N/A   Overcast
8:55 AM 48.7 °F 47.7 °F 96% 30.07 in 0.8 mi ESE 5.8 mph - N/A   Overcast
9:15 AM 49.1 °F 48.2 °F 97% 30.07 in 0.8 mi ESE 5.8 mph - N/A   Overcast
9:35 AM 49.5 °F 48.6 °F 97% 30.08 in 0.8 mi SE 4.6 mph - N/A   Overcast
9:55 AM 50.4 °F 49.5 °F 97% 30.08 in 0.5 mi SE 4.6 mph - N/A   Overcast
10:15 AM 50.9 °F 50.0 °F 97% 30.06 in 1.0 mi ESE 6.9 mph - N/A   Overcast
10:35 AM 50.9 °F 49.8 °F 96% 30.05 in 0.8 mi ESE 8.1 mph - N/A   Overcast
10:55 AM 51.3 °F 50.2 °F 96% 30.03 in 1.5 mi ESE 8.1 mph - N/A   Overcast
11:15 AM 51.4 °F 50.4 °F 96% 30.03 in 1.2 mi ESE 9.2 mph - N/A   Overcast
11:35 AM 51.3 °F 50.2 °F 96% 30.03 in 0.5 mi SE 8.1 mph - N/A   Overcast
11:55 AM 51.6 °F 50.5 °F 96% 30.02 in 0.8 mi ESE 5.8 mph - N/A   Overcast
12:15 PM 52.0 °F 50.9 °F 96% 30.02 in 1.0 mi SE 5.8 mph - N/A   Overcast
12:35 PM 52.3 °F 51.3 °F 96% 30.00 in 1.2 mi ESE 6.9 mph - N/A   Overcast
12:55 PM 52.7 °F 51.4 °F 95% 30.00 in 1.0 mi ESE 4.6 mph - N/A   Overcast
1:15 PM 52.9 °F 51.8 °F 96% 29.99 in 1.0 mi SE 6.9 mph - N/A   Overcast
1:35 PM 53.6 °F 52.5 °F 96% 29.98 in 1.8 mi SE 6.9 mph - N/A   Overcast
1:55 PM 54.0 °F 52.9 °F 96% 29.97 in 1.2 mi SE 8.1 mph - N/A   Overcast
2:15 PM 54.5 °F 53.1 °F 95% 29.95 in 1.2 mi SE 9.2 mph - N/A   Overcast
2:35 PM 54.5 °F 53.6 °F 97% 29.93 in 1.2 mi SE 8.1 mph - N/A   Overcast
2:55 PM 55.0 °F 54.0 °F 96% 29.90 in 1.2 mi SE 8.1 mph - N/A   Overcast
3:15 PM 55.0 °F 53.8 °F 96% 29.89 in 1.2 mi ESE 10.4 mph - N/A   Overcast
3:35 PM 54.3 °F 53.1 °F 95% 29.90 in 0.5 mi ESE 9.2 mph - N/A   Overcast
3:55 PM 53.6 °F 52.3 °F 95% 29.90 in 0.5 mi ESE 6.9 mph - N/A   Overcast
4:15 PM 53.6 °F 52.3 °F 95% 29.89 in 0.2 mi East 5.8 mph - N/A   Overcast
4:35 PM 53.6 °F 52.3 °F 95% 29.88 in 0.2 mi SE 9.2 mph - N/A   Overcast
4:55 PM 53.6 °F 52.7 °F 97% 29.84 in 0.2 mi SE 11.5 mph - N/A   Overcast
5:15 PM 54.5 °F 53.6 °F 97% 29.84 in 0.5 mi SE 8.1 mph - N/A   Overcast
5:35 PM 55.6 °F 54.7 °F 97% 29.83 in 0.8 mi SSE 10.4 mph - N/A   Overcast
5:55 PM 55.8 °F 54.9 °F 97% 29.80 in 1.0 mi SSE 17.3 mph 20.7 mph N/A   Overcast
6:15 PM 55.9 °F 55.0 °F 97% 29.85 in 2.5 mi Calm Calm - N/A   Overcast
7:55 PM 55.0 °F 53.8 °F 96% 29.80 in 4.0 mi ENE 3.5 mph - N/A   Scattered Clouds
8:15 PM 53.8 °F 52.5 °F 95% 29.80 in 2.5 mi Calm Calm - N/A   Clear
8:35 PM 54.1 °F 53.1 °F 96% 29.79 in 2.0 mi Calm Calm - N/A   Clear
8:55 PM 50.0 °F 48.9 °F 96% 29.78 in 0.2 mi Calm Calm - N/A   Overcast
9:15 PM 49.5 °F 48.6 °F 97% 29.78 in 0.2 mi Calm Calm - N/A   Overcast
9:35 PM 50.7 °F 49.8 °F 97% 29.79 in 0.2 mi Calm Calm - N/A   Overcast
9:55 PM 50.0 °F 49.1 °F 97% 29.78 in 0.2 mi Calm Calm - N/A   Overcast
10:15 PM 49.5 °F 48.6 °F 97% 29.77 in 0.2 mi Calm Calm - N/A   Overcast
10:35 PM 49.5 °F 48.6 °F 97% 29.76 in 0.2 mi Calm Calm - N/A   Overcast
10:55 PM 49.3 °F 48.4 °F 97% 29.76 in 0.2 mi Calm Calm - N/A   Overcast
11:15 PM 52.7 °F 52.0 °F 97% 29.74 in 4.0 mi SSE 3.5 mph - N/A   Overcast
11:35 PM 54.3 °F 53.6 °F 97% 29.74 in 5.0 mi Calm Calm - N/A   Overcast
11:55 PM 56.8 °F 56.1 °F 97% 29.73 in 7.0 mi South 6.9 mph - N/A   Overcast